Regional Weather Roundup
Issued by NWS Green Bay, WI

Home | Current Version | Previous Version | Text Only | Print | Product List | Glossary On
Versions: 1 2 3 4 5 6 7 8 9 10 11 12 13 14 15 16 17 18 19 20 21 22 23 24 25 26 27 28 29 30 31 32 33 34 35 36 37 38 39 40 41 42 43 44 45 46 47 48 49 50
719
ASUS43 KGRB 260711
RWRGRB

NORTH-CENTRAL AND NORTHEAST WISCONSIN REGIONAL WEATHER ROUNDUP
NATIONAL WEATHER SERVICE GREEN BAY WI
200 AM CDT WED APR 26 2017

WIZ005-009-010>012-018-019-260800-
NORTH CENTRAL WISCONSIN

CITY           SKY/WX    TMP DP  RH WIND       PRES   REMARKS
IRONWOOD       LGT RAIN  33  32  96 NE10      29.69F
MANITOWISH WTR RAIN      34  34 100 N6        29.63F
ARBOR VITAE    RAIN      38  37  95 NE8       29.61F
EAGLE RIVER    LGT RAIN  40  40 100 NE14      29.60F
LAND O LAKES   RAIN      37  37  99 NE9       29.64F
RHINELANDER    RAIN      46  46 100 N9        29.58F FOG
PHILLIPS       LGT RAIN  37  37 100 NE18G25   29.58F
ANTIGO         LGT RAIN  51  51  98 E16G22    29.54F
TOMAHAWK       HVY RAIN  45  44  95 NE8       29.56F
MERRILL        CLOUDY    54  54 100 E5        29.54F
$$

WIZ013-073-260800-
NORTHEAST WISCONSIN

CITY           SKY/WX    TMP DP  RH WIND       PRES   REMARKS
IRON MOUNTAIN  HVY RAIN  51  46  83 NE5       29.60F
MARINETTE      LGT RAIN  45  43  93 E14       29.59F
OCONTO         CLOUDY    49  46  87 NE7       29.57F
$$

WIZ017-030-035>037-045-260800-
CENTRAL WISCONSIN

CITY           SKY/WX    TMP DP  RH WIND       PRES   REMARKS
MEDFORD        CLOUDY    52  50  94 NE9       29.51F
WAUSAU         LGT RAIN  55  53  93 E9        29.50F
MOSINEE        RAIN      55  54  94 E9        29.51F
MARSHFIELD     CLOUDY    56  51  84 NE10      29.48F
WISC RAPIDS    LGT RAIN  60  54  80 E3        29.49S
STEVENS POINT  LGT RAIN  59  53  80 E13G18    29.50S
WAUPACA        DRIZZLE   62  54  75 E10       29.51S
SHAWANO        LGT RAIN  55  51  89 E9        29.55F
CLINTONVILLE   LGT RAIN  54  52  94 NE9       29.52F
WAUTOMA        LGT RAIN  62  55  77 SE7       29.49S
$$

WIZ038-039-048-051-260800-
FOX VALLEY

CITY           SKY/WX    TMP DP  RH WIND       PRES   REMARKS
NWS GREEN BAY  LGT RAIN  54  54 100 NE12      29.54F
APPLETON       CLOUDY    57  50  77 E9        29.50F
OSHKOSH        CLOUDY    61  52  72 SE10      29.50F
FOND DU LAC    CLOUDY    62  51  67 SE13      29.49F
$$

WIZ022-050-052-260800-
EAST CENTRAL WISCONSIN

CITY           SKY/WX    TMP DP  RH WIND       PRES   REMARKS
EPHRAIM        PTSUNNY   47  44  92 E9        29.58F
WASHINGTON ISL PTSUNNY   42  40  91 N3        29.61F
STURGEON BAY   CLOUDY    52  47  83 E7        29.58F
MANITOWOC      MOCLDY    54  49  83 E3        29.55F
SHEBOYGAN      CLOUDY    57  51  80 E3        29.54F
$$

LMZ563-521-522-541>543-260800-
LAKESHORE

STATION/POSITION TIME  TEMP    WIND        PRES    VSBY  WAVE
                       AIR SEA DIR/SP/G                  HT/PER
                 (UTC) (F)     (DEG/KT/KT) (MB)    (MI)  (FT/S)
SHEBOYGAN LKSHOR 0700   49     140/  9/ 12  999.8F
KEWAUNEE LKSHORE 0648   49     120/  6/ 10 1001.2F
NORTHPORT PIER   0640   45      70/  3/  5 1003.0F
N MID LAKE BUOY  0650   41 37   80/ 10/ 10 1003.8F         2/ 4
SISTER BAY LKSHO 0606   47     110/  5/  7   N/A
CHAMBERS ISLAND  0640   41      20/ 10/ 12 1002.4F
MENOMINEE LKSHOR 0648   42      10/ 15/ 18 1001.4F
$$




USA.gov is the U.S. government's official web portal to all federal, state and local government web resources and services.